Wind From: 10-12-2017 19:04 Until: 11-12-2017 16:00 warning for: Wind Level: Orange info button

Power and phone distribution networks may be disrupted for relatively long periods., Roofs and chimneys can be damaged. , Tree branches may break. , Vehicles can be deported. , Traffic may be disrupted, particularly on secondary roads in forest areas. Limit your trips. , Limit your speed in highway driving, especially if you drive a vehicle or hitch sensitive to wind. , Do not go for walks in forests or along the coast., In town, be vigilant against possible falling objects., Do not work on roofs and do not touch any electrical line fallen on the ground., Store or secure sensitive objects to wind or likely to be damaged., Always install power generators outside buildings. 


Meteo18 Weather Cam more information Meteo18 Weather Cam


Thunder radar more information blitzortung!


Rain radar more information rain snow radar


Visit our other weather sites:

Template documentation
and downloads

And another site



Weather Underground History page Text

Daily Summary for March 3, 2017 Units:  English    Metric   Both
« Previous Day
Next Day »
Daily Weekly Monthly Yearly Custom
  High: Low: Average:
Temperature: 62.2 °F 41.4 °F 50.9 °F
Dew Point: 49.5 °F 36.1 °F 42.4 °F
Humidity: 87 % 59 % 73 %
Wind Speed: 15 mph 0 mph 3.2 mph
Wind Gust: 19 mph - -
Wind:- - SE
Pressure: 30 in 29.4 in -
Precipitation: 0 in    
Historical Graphs
 
 
Tabular Data for March 3, 2017
Time Temperature Dew Point Pressure Wind Wind Speed Wind Gust Humidity Rainfall Rate (Hourly)
00:02 42.8 °F 36.7 °F 30 in North 1 mph 2 mph 79 % 0 in
00:07 42.6 °F 36.5 °F 30 in Calm   2 mph 79 % 0 in
00:12 42.8 °F 36.7 °F 30 in NNE 1 mph 2 mph 79 % 0 in
00:17 43 °F 36.3 °F 30 in NE 1 mph 2 mph 77 % 0 in
00:22 43.5 °F 36.1 °F 30 in NE 2 mph 2 mph 75 % 0 in
00:27 43.9 °F 36.1 °F 30 in Calm   2 mph 74 % 0 in
00:32 43.9 °F 36.1 °F 30 in Calm   2 mph 74 % 0 in
00:42 43.5 °F 36.5 °F 30 in Calm   1 mph 76 % 0 in
00:47 43.7 °F 36.7 °F 30 in Calm   1 mph 76 % 0 in
00:52 43.3 °F 36.9 °F 30 in Calm   1 mph 78 % 0 in
01:02 43.2 °F 36.7 °F 30 in Calm   1 mph 78 % 0 in
01:07 43.2 °F 37 °F 30 in Calm   1 mph 79 % 0 in
01:12 43.2 °F 37 °F 30 in Calm   1 mph 79 % 0 in
01:17 43.3 °F 36.9 °F 30 in Calm   1 mph 78 % 0 in
01:22 43.5 °F 36.9 °F 30 in Calm   1 mph 77 % 0 in
01:27 43.9 °F 37.2 °F 30 in Calm   1 mph 77 % 0 in
01:32 44.1 °F 37 °F 30 in Calm   2 mph 76 % 0 in
01:37 44.2 °F 37.6 °F 30 in Calm   3 mph 77 % 0 in
01:42 44.2 °F 37.6 °F 30 in Calm   3 mph 77 % 0 in
01:47 44.2 °F 37.8 °F 30 in Calm   2 mph 78 % 0 in
01:52 43.9 °F 37.8 °F 30 in Calm   2 mph 79 % 0 in
01:57 43.5 °F 37.4 °F 29.9 in Calm   1 mph 79 % 0 in
02:02 43.7 °F 37.2 °F 29.9 in NNE 1 mph 1 mph 78 % 0 in
02:07 43.5 °F 37.8 °F 29.9 in Calm   2 mph 80 % 0 in
02:12 43.3 °F 37.6 °F 29.9 in NNE 1 mph 2 mph 80 % 0 in
02:17 43 °F 37.6 °F 29.9 in Calm   2 mph 81 % 0 in
02:22 42.8 °F 37 °F 29.9 in Calm   2 mph 80 % 0 in
02:27 43.2 °F 37.4 °F 29.9 in Calm   2 mph 80 % 0 in
02:32 43.2 °F 37.4 °F 29.9 in Calm   1 mph 80 % 0 in
02:37 43.3 °F 37.6 °F 29.9 in Calm   1 mph 80 % 0 in
02:42 43 °F 37.6 °F 29.9 in Calm   1 mph 81 % 0 in
02:47 42.4 °F 37.6 °F 29.9 in Calm   1 mph 83 % 0 in
02:52 42.3 °F 37.4 °F 29.9 in Calm   1 mph 83 % 0 in
02:57 42.4 °F 37.4 °F 29.9 in Calm   1 mph 82 % 0 in
03:02 42.4 °F 37.4 °F 29.9 in Calm   1 mph 82 % 0 in
03:07 42.3 °F 37.2 °F 29.9 in Calm   1 mph 82 % 0 in
03:12 42.4 °F 37.4 °F 29.9 in Calm   1 mph 82 % 0 in
03:17 42.6 °F 37.6 °F 29.9 in Calm   1 mph 82 % 0 in
03:22 43 °F 37.9 °F 29.9 in Calm   1 mph 82 % 0 in
03:27 43 °F 37.6 °F 29.9 in Calm   1 mph 81 % 0 in
03:32 42.8 °F 37.4 °F 29.9 in Calm   1 mph 81 % 0 in
03:37 43 °F 37.6 °F 29.9 in Calm   1 mph 81 % 0 in
03:42 42.8 °F 37.8 °F 29.9 in Calm   2 mph 82 % 0 in
03:47 42.6 °F 37.6 °F 29.9 in Calm   2 mph 82 % 0 in
03:52 42.6 °F 37.6 °F 29.9 in Calm   2 mph 82 % 0 in
03:57 42.8 °F 37.8 °F 29.9 in Calm   1 mph 82 % 0 in
04:02 42.8 °F 37.9 °F 29.9 in Calm   1 mph 83 % 0 in
04:07 42.8 °F 37.9 °F 29.9 in Calm   1 mph 83 % 0 in
04:12 43 °F 38.1 °F 29.9 in Calm   1 mph 83 % 0 in
04:17 42.6 °F 37.8 °F 29.9 in Calm   1 mph 83 % 0 in
04:22 42.6 °F 37.8 °F 29.9 in Calm   1 mph 83 % 0 in
04:32 43 °F 38.1 °F 29.9 in Calm   1 mph 83 % 0 in
04:37 43 °F 38.1 °F 29.9 in Calm   1 mph 83 % 0 in
04:42 42.4 °F 37.6 °F 29.9 in Calm   1 mph 83 % 0 in
04:47 42.1 °F 37.6 °F 29.9 in Calm   1 mph 84 % 0 in
04:52 42.1 °F 37.6 °F 29.9 in Calm     84 % 0 in
04:57 42.1 °F 37.9 °F 29.9 in Calm   1 mph 85 % 0 in
05:02 42.1 °F 37.9 °F 29.9 in Calm   1 mph 85 % 0 in
05:12 42.3 °F 37.8 °F 29.8 in Calm   1 mph 84 % 0 in
05:17 41.9 °F 37.8 °F 29.8 in Calm   1 mph 85 % 0 in
05:22 41.7 °F 37.6 °F 29.8 in Calm     85 % 0 in
05:32 41.5 °F 37.4 °F 29.8 in Calm   2 mph 85 % 0 in
05:37 41.4 °F 37.6 °F 29.8 in Calm   2 mph 86 % 0 in
05:42 41.9 °F 37.9 °F 29.8 in SSE 1 mph 3 mph 86 % 0 in
05:47 42.1 °F 38.1 °F 29.8 in SE 2 mph 4 mph 86 % 0 in
05:52 42.3 °F 38.3 °F 29.8 in East 1 mph 4 mph 86 % 0 in
05:57 42.4 °F 38.3 °F 29.8 in ESE 1 mph 4 mph 85 % 0 in
06:02 42.3 °F 38.1 °F 29.8 in Calm   3 mph 85 % 0 in
06:12 41.7 °F 37.8 °F 29.8 in Calm   2 mph 86 % 0 in
06:17 41.5 °F 37.6 °F 29.8 in Calm   1 mph 86 % 0 in
06:22 41.7 °F 38.1 °F 29.8 in Calm   1 mph 87 % 0 in
06:27 41.7 °F 38.1 °F 29.8 in Calm   1 mph 87 % 0 in
06:32 41.9 °F 38.3 °F 29.8 in Calm   1 mph 87 % 0 in
06:37 42.3 °F 38.7 °F 29.8 in Calm   4 mph 87 % 0 in
06:42 42.6 °F 38.7 °F 29.8 in Calm   4 mph 86 % 0 in
06:47 42.8 °F 38.7 °F 29.8 in Calm   4 mph 85 % 0 in
06:52 42.6 °F 38.5 °F 29.8 in Calm   1 mph 85 % 0 in
07:02 43 °F 38.8 °F 29.8 in Calm   2 mph 85 % 0 in
07:07 42.8 °F 38.7 °F 29.8 in Calm   2 mph 85 % 0 in
07:12 42.6 °F 38.5 °F 29.8 in Calm   2 mph 85 % 0 in
07:17 42.3 °F 38.3 °F 29.8 in Calm   2 mph 86 % 0 in
07:22 42.3 °F 38.7 °F 29.8 in Calm   1 mph 87 % 0 in
07:27 42.4 °F 38.5 °F 29.8 in Calm   1 mph 86 % 0 in
07:32 42.6 °F 38.7 °F 29.8 in Calm   3 mph 86 % 0 in
07:37 42.4 °F 38.3 °F 29.8 in Calm   3 mph 85 % 0 in
07:42 42.4 °F 38.5 °F 29.8 in Calm   3 mph 86 % 0 in
07:47 43 °F 38.8 °F 29.8 in WNW 1 mph 1 mph 85 % 0 in
07:52 43.2 °F 38.7 °F 29.8 in Calm   1 mph 84 % 0 in
07:57 43.2 °F 38.7 °F 29.8 in Calm   1 mph 84 % 0 in
08:02 43.3 °F 38.8 °F 29.8 in Calm   1 mph 84 % 0 in
08:07 43.3 °F 38.8 °F 29.8 in Calm   1 mph 84 % 0 in
08:12 43.5 °F 38.7 °F 29.8 in Calm   1 mph 83 % 0 in
08:17 43.5 °F 38.7 °F 29.8 in Calm   1 mph 83 % 0 in
08:22 43.5 °F 39 °F 29.8 in Calm   1 mph 84 % 0 in
08:27 43.5 °F 39 °F 29.8 in Calm   1 mph 84 % 0 in
08:32 44.1 °F 39.2 °F 29.8 in Calm   1 mph 83 % 0 in
08:37 44.4 °F 39.6 °F 29.8 in Calm   1 mph 83 % 0 in
08:42 45 °F 40.1 °F 29.7 in Calm   1 mph 83 % 0 in
08:47 45.3 °F 39.9 °F 29.7 in Calm   2 mph 81 % 0 in
08:52 45.9 °F 40.3 °F 29.7 in Calm   2 mph 81 % 0 in
08:57 46 °F 40.5 °F 29.7 in Calm   2 mph 81 % 0 in
09:02 46.2 °F 40.6 °F 29.7 in Calm   2 mph 81 % 0 in
09:12 46.8 °F 41 °F 29.7 in Calm   3 mph 80 % 0 in
09:17 46.9 °F 41.2 °F 29.7 in Calm   3 mph 80 % 0 in
09:22 47.1 °F 41.4 °F 29.7 in Calm   2 mph 80 % 0 in
09:27 47.5 °F 41.5 °F 29.7 in Calm   1 mph 80 % 0 in
09:32 47.7 °F 41.5 °F 29.7 in Calm   1 mph 79 % 0 in
09:37 47.8 °F 41.9 °F 29.7 in SSE 1 mph 1 mph 80 % 0 in
09:42 47.8 °F 41.7 °F 29.7 in SE 1 mph 2 mph 79 % 0 in
09:47 48 °F 41.9 °F 29.7 in SE 1 mph 3 mph 79 % 0 in
09:52 48 °F 41.9 °F 29.7 in SE 2 mph 3 mph 79 % 0 in
09:57 48.4 °F 42.3 °F 29.7 in SE 2 mph 3 mph 79 % 0 in
10:02 48.6 °F 42.1 °F 29.7 in SE 4 mph 4 mph 78 % 0 in
10:12 48.9 °F 42.6 °F 29.7 in SE 3 mph 6 mph 79 % 0 in
10:17 49.1 °F 42.6 °F 29.7 in ESE 6 mph 6 mph 78 % 0 in
10:22 49.1 °F 42.3 °F 29.7 in East 4 mph 6 mph 77 % 0 in
10:27 49.3 °F 42.4 °F 29.7 in SE 4 mph 6 mph 77 % 0 in
10:32 49.3 °F 42.8 °F 29.7 in SSE 1 mph 7 mph 78 % 0 in
10:37 49.5 °F 42.8 °F 29.7 in SE 3 mph 9 mph 78 % 0 in
10:42 49.6 °F 42.8 °F 29.7 in SE 2 mph 9 mph 77 % 0 in
10:52 50 °F 43.2 °F 29.7 in South 3 mph 5 mph 77 % 0 in
10:57 50.2 °F 43 °F 29.7 in ESE 3 mph 6 mph 76 % 0 in
11:02 50.5 °F 43.3 °F 29.7 in SE 2 mph 6 mph 76 % 0 in
11:07 50.7 °F 43.2 °F 29.7 in SE 1 mph 6 mph 75 % 0 in
11:12 51.1 °F 43.7 °F 29.7 in ESE 1 mph 8 mph 76 % 0 in
11:17 51.4 °F 43.7 °F 29.7 in ESE 3 mph 8 mph 75 % 0 in
11:22 51.8 °F 43.7 °F 29.7 in SE 3 mph 5 mph 74 % 0 in
11:27 52.2 °F 44.4 °F 29.7 in ESE 4 mph 4 mph 75 % 0 in
11:32 52.3 °F 43.9 °F 29.7 in SE 3 mph 4 mph 73 % 0 in
11:37 52.5 °F 44.1 °F 29.7 in ESE 3 mph 6 mph 73 % 0 in
11:42 52.9 °F 44.8 °F 29.7 in SE 3 mph 7 mph 74 % 0 in
11:47 53.1 °F 44.6 °F 29.7 in SE 2 mph 7 mph 73 % 0 in
11:52 53.4 °F 45 °F 29.7 in ESE 2 mph 7 mph 73 % 0 in
11:57 53.8 °F 45.7 °F 29.7 in SE 1 mph 7 mph 74 % 0 in
12:02 54.1 °F 45.3 °F 29.7 in ESE 4 mph 6 mph 72 % 0 in
12:07 54.3 °F 46.2 °F 29.7 in SE 2 mph 8 mph 74 % 0 in
12:12 54.7 °F 46.2 °F 29.7 in SE 2 mph 8 mph 73 % 0 in
12:17 55 °F 46.9 °F 29.6 in East 3 mph 8 mph 74 % 0 in
12:22 55.4 °F 46.9 °F 29.6 in East 4 mph 6 mph 73 % 0 in
12:27 55.2 °F 46 °F 29.6 in ESE 2 mph 6 mph 71 % 0 in
12:32 55.4 °F 46.6 °F 29.6 in ENE 5 mph 8 mph 72 % 0 in
12:42 55.9 °F 45.9 °F 29.6 in ESE 4 mph 11 mph 69 % 0 in
12:47 56.1 °F 46 °F 29.6 in East 5 mph 11 mph 69 % 0 in
12:52 56.5 °F 47.1 °F 29.6 in ESE 5 mph 12 mph 71 % 0 in
12:57 56.5 °F 46.4 °F 29.6 in SE 6 mph 12 mph 69 % 0 in
13:02 56.7 °F 47.3 °F 29.6 in SE 8 mph 12 mph 71 % 0 in
13:07 56.8 °F 47.1 °F 29.6 in SE 7 mph 11 mph 70 % 0 in
13:12 57 °F 48 °F 29.6 in SE 5 mph 10 mph 72 % 0 in
13:17 57.4 °F 47.7 °F 29.6 in SE 3 mph 10 mph 70 % 0 in
13:22 57.7 °F 48.4 °F 29.6 in SE 5 mph 10 mph 71 % 0 in
13:27 57.9 °F 48.2 °F 29.6 in SE 4 mph 10 mph 70 % 0 in
13:32 58.3 °F 47.8 °F 29.6 in SE 6 mph 9 mph 68 % 0 in
13:37 58.8 °F 48.2 °F 29.6 in SE 3 mph 9 mph 68 % 0 in
13:42 59.2 °F 49.1 °F 29.6 in SE 3 mph 8 mph 69 % 0 in
13:47 59.7 °F 48.7 °F 29.6 in SSE 4 mph 8 mph 67 % 0 in
13:52 60.1 °F 46.9 °F 29.6 in SE 6 mph 10 mph 62 % 0 in
13:57 60.4 °F 47.3 °F 29.6 in SSE 6 mph 15 mph 62 % 0 in
14:02 60.4 °F 47.3 °F 29.6 in SE 8 mph 15 mph 62 % 0 in
14:07 60.6 °F 47.1 °F 29.6 in SE 5 mph 17 mph 61 % 0 in
14:12 60.8 °F 48.2 °F 29.6 in SE 5 mph 17 mph 63 % 0 in
14:22 61.3 °F 48.2 °F 29.6 in SE 6 mph 11 mph 62 % 0 in
14:27 61.3 °F 47.3 °F 29.6 in SSE 8 mph 13 mph 60 % 0 in
14:32 61.3 °F 48.6 °F 29.6 in SE 5 mph 13 mph 63 % 0 in
14:37 61.3 °F 47.8 °F 29.6 in SE 12 mph 14 mph 61 % 0 in
14:42 61.3 °F 46.9 °F 29.6 in SE 5 mph 14 mph 59 % 0 in
14:47 61.5 °F 48.7 °F 29.6 in ESE 8 mph 14 mph 63 % 0 in
14:52 61.5 °F 47.5 °F 29.6 in SSE 4 mph 12 mph 60 % 0 in
15:02 61.7 °F 48.6 °F 29.6 in South 7 mph 13 mph 62 % 0 in
15:07 61.7 °F 48.2 °F 29.6 in SE 4 mph 13 mph 61 % 0 in
15:12 61.9 °F 47.8 °F 29.6 in SSE 7 mph 15 mph 60 % 0 in
15:17 61.9 °F 48.7 °F 29.6 in SSE 3 mph 15 mph 62 % 0 in
15:22 62.1 °F 48 °F 29.6 in ESE 8 mph 15 mph 60 % 0 in
15:27 62.1 °F 48.9 °F 29.6 in SSE 4 mph 13 mph 62 % 0 in
15:32 62.1 °F 48.9 °F 29.5 in SE 8 mph 13 mph 62 % 0 in
15:37 62.1 °F 49.3 °F 29.5 in SSE 9 mph 13 mph 63 % 0 in
15:42 62.2 °F 48.6 °F 29.5 in South 7 mph 15 mph 61 % 0 in
15:47 62.2 °F 49.5 °F 29.5 in SE 8 mph 15 mph 63 % 0 in
15:52 62.2 °F 49.1 °F 29.5 in SSE 4 mph 15 mph 62 % 0 in
16:02 61.9 °F 48.7 °F 29.5 in SE 15 mph 15 mph 62 % 0 in
16:12 61.9 °F 49.1 °F 29.5 in SE 8 mph 16 mph 63 % 0 in
16:17 61.9 °F 48.7 °F 29.5 in SSE 4 mph 16 mph 62 % 0 in
16:22 61.9 °F 48.2 °F 29.5 in SSE 7 mph 17 mph 61 % 0 in
16:32 61.5 °F 47.5 °F 29.5 in SSE 8 mph 15 mph 60 % 0 in
16:37 61.3 °F 47.3 °F 29.5 in SE 7 mph 15 mph 60 % 0 in
16:42 61.2 °F 47.7 °F 29.5 in ESE 5 mph 15 mph 61 % 0 in
16:47 61 °F 47.8 °F 29.5 in SW 6 mph 15 mph 62 % 0 in
16:52 61.2 °F 47.1 °F 29.5 in SE 7 mph 14 mph 60 % 0 in
16:57 61 °F 47.8 °F 29.5 in SE 7 mph 19 mph 62 % 0 in
17:02 60.6 °F 46.6 °F 29.5 in SSE 4 mph 19 mph 60 % 0 in
17:07 60.6 °F 47.1 °F 29.5 in SSE 4 mph 19 mph 61 % 0 in
17:12 60.4 °F 46.9 °F 29.5 in SE 5 mph 16 mph 61 % 0 in
17:17 60.3 °F 47.1 °F 29.5 in ENE 5 mph 16 mph 62 % 0 in
17:22 60.1 °F 46.9 °F 29.5 in ESE 8 mph 16 mph 62 % 0 in
17:27 59.7 °F 47.1 °F 29.5 in SSE 6 mph 13 mph 63 % 0 in
17:32 59.5 °F 46.9 °F 29.5 in SE 3 mph 11 mph 63 % 0 in
17:42 59.4 °F 46.4 °F 29.5 in East 6 mph 14 mph 62 % 0 in
17:47 59.2 °F 46.2 °F 29.5 in SSE 7 mph 14 mph 62 % 0 in
17:52 59 °F 46.4 °F 29.5 in SE 7 mph 16 mph 63 % 0 in
17:57 58.8 °F 46.2 °F 29.5 in SSE 6 mph 16 mph 63 % 0 in
18:02 58.6 °F 46 °F 29.5 in SE 5 mph 13 mph 63 % 0 in
18:07 58.3 °F 45.7 °F 29.5 in ESE 10 mph 13 mph 63 % 0 in
18:12 58.3 °F 45.3 °F 29.5 in ESE 9 mph 11 mph 62 % 0 in
18:17 58.3 °F 45.7 °F 29.5 in ESE 4 mph 15 mph 63 % 0 in
18:22 57.9 °F 45.3 °F 29.5 in ESE 7 mph 15 mph 63 % 0 in
18:27 57.7 °F 44.8 °F 29.5 in SSE 7 mph 13 mph 62 % 0 in
18:32 57.7 °F 44.8 °F 29.5 in SSE 7 mph 13 mph 62 % 0 in
18:42 57.2 °F 45.1 °F 29.5 in SE 8 mph 14 mph 64 % 0 in
18:47 57.2 °F 45.1 °F 29.5 in East 8 mph 13 mph 64 % 0 in
18:52 57 °F 45 °F 29.5 in SE 5 mph 12 mph 64 % 0 in
19:02 56.7 °F 45.5 °F 29.5 in SE 4 mph 14 mph 66 % 0 in
19:07 56.5 °F 45.3 °F 29.5 in SSE 4 mph 14 mph 66 % 0 in
19:12 56.5 °F 45.3 °F 29.5 in SE 10 mph 14 mph 66 % 0 in
19:22 56.1 °F 45 °F 29.5 in SSE 3 mph 14 mph 66 % 0 in
19:27 55.9 °F 44.8 °F 29.5 in SSW 5 mph 12 mph 66 % 0 in
19:32 56.1 °F 44.6 °F 29.5 in SSE 4 mph 13 mph 65 % 0 in
19:37 55.9 °F 44.4 °F 29.5 in SSE 3 mph 13 mph 65 % 0 in
19:42 55.9 °F 44.4 °F 29.5 in SSE 5 mph 13 mph 65 % 0 in
19:47 55.8 °F 44.6 °F 29.5 in SE 3 mph 13 mph 66 % 0 in
19:52 55.2 °F 44.1 °F 29.5 in SSE 4 mph 13 mph 66 % 0 in
19:57 55.4 °F 44.2 °F 29.5 in South 7 mph 11 mph 66 % 0 in
20:02 55.2 °F 43.7 °F 29.5 in SSE 6 mph 10 mph 65 % 0 in
20:07 55.2 °F 43.7 °F 29.5 in South 4 mph 10 mph 65 % 0 in
20:12 55.2 °F 44.1 °F 29.5 in SE 8 mph 10 mph 66 % 0 in
20:17 55 °F 43.9 °F 29.5 in SSE 10 mph 12 mph 66 % 0 in
20:22 55.2 °F 44.1 °F 29.5 in SSE 11 mph 12 mph 66 % 0 in
20:27 55.2 °F 43.7 °F 29.5 in South 3 mph 15 mph 65 % 0 in
20:32 55 °F 43.9 °F 29.5 in SE 8 mph 15 mph 66 % 0 in
20:37 54.9 °F 43.7 °F 29.5 in SE 5 mph 12 mph 66 % 0 in
20:42 54.7 °F 43.5 °F 29.5 in SSE 5 mph 11 mph 66 % 0 in
20:47 54.5 °F 43.7 °F 29.5 in SSE 5 mph 9 mph 67 % 0 in
20:52 54.5 °F 43.7 °F 29.5 in SSE 3 mph 11 mph 67 % 0 in
20:57 54.3 °F 43.5 °F 29.5 in ESE 3 mph 11 mph 67 % 0 in
21:02 54.5 °F 43.7 °F 29.5 in South 3 mph 12 mph 67 % 0 in
21:07 54.5 °F 44.2 °F 29.5 in South 6 mph 12 mph 68 % 0 in
21:12 54.5 °F 43.7 °F 29.5 in SE 4 mph 12 mph 67 % 0 in
21:17 54.3 °F 44.1 °F 29.5 in SE 5 mph 13 mph 68 % 0 in
21:22 54.3 °F 44.1 °F 29.5 in South 5 mph 13 mph 68 % 0 in
21:27 54.3 °F 44.1 °F 29.5 in SE 10 mph 15 mph 68 % 0 in
21:32 54.3 °F 44.1 °F 29.5 in SE 6 mph 15 mph 68 % 0 in
21:37 54.3 °F 44.1 °F 29.5 in SE 3 mph 18 mph 68 % 0 in
21:42 54.3 °F 44.1 °F 29.5 in ESE 7 mph 18 mph 68 % 0 in
21:47 54.5 °F 43.7 °F 29.5 in SE 5 mph 18 mph 67 % 0 in
21:52 54.3 °F 44.1 °F 29.5 in SSW 6 mph 17 mph 68 % 0 in
21:57 54.3 °F 44.1 °F 29.5 in SE 5 mph 17 mph 68 % 0 in
22:02 54.3 °F 43.5 °F 29.5 in South 8 mph 15 mph 67 % 0 in
22:07 54.3 °F 43.5 °F 29.5 in South 7 mph 14 mph 67 % 0 in
22:12 54.3 °F 43.5 °F 29.5 in SE 5 mph 17 mph 67 % 0 in
22:17 54.3 °F 43.5 °F 29.5 in SSE 3 mph 17 mph 67 % 0 in
22:22 54.3 °F 43.5 °F 29.5 in SSE 3 mph 17 mph 67 % 0 in
22:27 54.1 °F 43.3 °F 29.5 in SSE 7 mph 16 mph 67 % 0 in
22:32 54 °F 43.3 °F 29.5 in ESE 7 mph 12 mph 67 % 0 in
22:37 54 °F 43.3 °F 29.5 in SSE 4 mph 11 mph 67 % 0 in
22:42 53.8 °F 43.5 °F 29.5 in SSE 5 mph 12 mph 68 % 0 in
22:47 53.8 °F 43.5 °F 29.5 in South 7 mph 12 mph 68 % 0 in
22:52 53.8 °F 43.5 °F 29.5 in ESE 5 mph 12 mph 68 % 0 in
22:57 54 °F 43.3 °F 29.5 in SSE 4 mph 12 mph 67 % 0 in
23:02 54 °F 42.8 °F 29.5 in SSE 4 mph 12 mph 66 % 0 in
23:07 53.8 °F 43.2 °F 29.5 in SE 9 mph 13 mph 67 % 0 in
23:12 54 °F 43.3 °F 29.5 in SE 5 mph 15 mph 67 % 0 in
23:17 53.8 °F 42.6 °F 29.5 in ESE 9 mph 16 mph 66 % 0 in
23:22 53.8 °F 42.6 °F 29.5 in SE 8 mph 16 mph 66 % 0 in
23:27 54 °F 42.8 °F 29.4 in SE 8 mph 14 mph 66 % 0 in
23:32 54 °F 42.8 °F 29.5 in SE 12 mph 14 mph 66 % 0 in
23:37 54 °F 42.8 °F 29.5 in SSE 6 mph 14 mph 66 % 0 in
23:42 53.8 °F 42.6 °F 29.5 in SSE 5 mph 14 mph 66 % 0 in
23:47 53.8 °F 42.6 °F 29.4 in SE 4 mph 14 mph 66 % 0 in
23:52 53.8 °F 42.6 °F 29.4 in SSE 10 mph 13 mph 66 % 0 in
Meteo18
Compliments of Weather Underground - 4 mb

Script developed by  Jim McMurry - jmcmurry@mwt.net Adapted for the template by  Wim van der Kuil - Leuven-Template.eu

You find our weather info also at:

European Weather Network

Weather Underground

Equipment we use:

Weather-station
Davis Vue

Weather-program
Meteohub

Weather-server
Raspberry PI 2 B+

Provider
1 and 1

Davis Vue

Meteohub

Raspberry PI 2 B+

1 and 1